DW6599 Weather Reports


time (UTC)temp
C
wind
direction
speed
KPH
gust
KPH
rain 1hr
cm
rain 24hr
cm
rain mn
cm
humidity
%
barometer
mb
20260506204858 17 30 16.1 37.0 0.00 0.00 0.00 61 1016.2
20260506204359 17 20 20.9 20.9 0.00 0.00 0.00 60 1016.1
20260506203859 17 20 20.9 20.9 0.00 0.00 0.00 60 1016.1
20260506203359 17 20 20.9 37.0 0.00 0.00 0.00 60 1015.8
20260506202858 17 50 20.9 37.0 0.00 0.00 0.00 59 1015.7
20260506202358 17 50 20.9 37.0 0.00 0.00 0.00 60 1015.6
20260506201859 17 50 20.9 37.0 0.00 0.00 0.00 60 1015.6
20260506201358 17 50 20.9 37.0 0.00 0.00 0.00 60 1015.4
20260506200359 17 50 20.9 37.0 0.00 0.00 0.00 60 1015.4
20260506195859 17 40 19.3 19.3 0.00 0.00 0.00 60 1015.4
20260506195359 17 40 19.3 19.3 0.00 0.00 0.00 61 1015.2
20260506194859 17 40 19.3 24.1 0.00 0.00 0.00 61 1015.2
20260506194359 17 20 24.1 24.1 0.00 0.00 0.00 61 1015.1
20260506193858 17 20 24.1 24.1 0.00 0.00 0.00 63 1015.1
20260506193359 16 20 24.1 24.1 0.00 0.00 0.00 61 1015.0
20260506192859 16 20 14.5 14.5 0.00 0.00 0.00 64 1015.0
20260506192358 16 20 14.5 14.5 0.00 0.00 0.00 60 1015.0
20260506191859 16 20 14.5 14.5 0.00 0.00 0.00 60 1015.1
20260506191359 16 20 14.5 14.5 0.00 0.00 0.00 63 1015.0
20260506190859 16 20 14.5 14.5 0.00 0.00 0.00 64 1015.0
20260506190358 16 20 14.5 33.8 0.00 0.00 0.00 65 1015.2
20260506185858 16 40 20.9 33.8 0.00 0.00 0.00 63 1015.1
20260506185359 16 40 20.9 33.8 0.00 0.00 0.00 64 1015.1
20260506184859 16 40 20.9 33.8 0.00 0.00 0.00 61 1015.2
20260506184359 16 30 20.9 20.9 0.00 0.00 0.00 62 1015.2
20260506183359 16 30 20.9 38.6 0.00 0.00 0.00 66 1015.2
20260506182859 15 30 22.5 38.6 0.00 0.00 0.00 65 1015.3
20260506182358 15 30 22.5 38.6 0.00 0.00 0.00 64 1015.3
20260506180359 14 30 22.5 38.6 0.00 0.00 0.00 66 1015.8
20260506175859 14 20 19.3 19.3 0.00 0.00 0.00 65 1015.9
20260506175359 14 20 19.3 19.3 0.00 0.00 0.00 66 1015.9
20260506174859 14 20 19.3 22.5 0.00 0.00 0.00 65 1015.9
20260506174359 13 30 22.5 22.5 0.00 0.00 0.00 66 1015.9
20260506173359 13 30 22.5 22.5 0.00 0.00 0.00 64 1016.0
20260506172859 13 40 16.1 16.1 0.00 0.00 0.00 65 1015.9
20260506172359 13 40 16.1 16.1 0.00 0.00 0.00 64 1016.1
20260506171859 13 40 16.1 16.1 0.00 0.00 0.00 66 1016.2
20260506171359 13 40 16.1 16.1 0.00 0.00 0.00 66 1016.5
20260506170859 13 40 16.1 16.1 0.00 0.00 0.00 66 1016.6
20260506170359 13 40 16.1 16.1 0.00 0.00 0.00 66 1016.9
20260506165859 13 70 16.1 16.1 0.00 0.00 0.00 67 1017.0
20260506165359 13 70 16.1 16.1 0.00 0.00 0.00 66 1017.2
20260506164859 13 70 16.1 16.1 0.00 0.00 0.00 66 1017.2
20260506164359 13 50 14.5 14.5 0.00 0.00 0.00 68 1017.3
20260506163859 13 50 14.5 14.5 0.00 0.00 0.00 67 1017.2
20260506163359 13 50 14.5 37.0 0.00 0.00 0.00 67 1017.4
20260506162859 12 20 20.9 37.0 0.00 0.00 0.00 68 1017.0
20260506162358 12 20 20.9 37.0 0.00 0.00 0.00 69 1016.6
20260506161858 12 20 20.9 37.0 0.00 0.00 0.00 68 1016.6
20260506161359 12 20 20.9 37.0 0.00 0.00 0.00 69 1016.6
20260506160359 12 20 20.9 37.0 0.00 0.00 0.00 69 1016.6
20260506155859 12 40 19.3 19.3 0.00 0.00 0.00 69 1016.4
20260506155358 12 40 19.3 19.3 0.00 0.00 0.00 70 1016.3
20260506154359 12 30 22.5 22.5 0.00 0.00 0.00 69 1016.1
20260506153859 12 30 22.5 22.5 0.00 0.00 0.00 69 1016.2
20260506153359 12 30 22.5 32.2 0.00 0.00 0.00 70 1016.2
20260506152859 12 30 20.9 32.2 0.00 0.00 0.00 69 1016.4
20260506152358 12 30 20.9 32.2 0.00 0.00 0.00 71 1016.4
20260506151859 12 30 20.9 32.2 0.00 0.00 0.00 71 1016.2
20260506151358 11 30 20.9 32.2 0.00 0.00 0.00 71 1016.2
20260506150858 11 30 20.9 32.2 0.00 0.00 0.00 71 1016.0
20260506150359 12 30 20.9 32.2 0.00 0.00 0.00 71 1016.5
20260506145858 12 30 24.1 24.1 0.00 0.00 0.00 70 1016.5
20260506145359 12 30 24.1 24.1 0.00 0.00 0.00 69 1016.6
20260506144858 12 30 24.1 24.1 0.00 0.00 0.00 69 1016.6
20260506144359 12 40 14.5 14.5 0.00 0.00 0.00 69 1016.4
20260506143859 12 40 14.5 14.5 0.00 0.00 0.00 69 1016.0
20260506143359 12 40 14.5 29.0 0.00 0.00 0.00 69 1015.9
20260506142859 12 30 19.3 29.0 0.00 0.00 0.00 69 1015.8
20260506142404 12 30 19.3 29.0 0.00 0.00 0.00 70 1015.6
20260506141859 12 30 19.3 29.0 0.00 0.00 0.00 69 1015.6
20260506141359 11 30 19.3 29.0 0.00 0.00 0.00 69 1015.6
20260506140859 12 30 19.3 29.0 0.00 0.00 0.00 69 1015.7
20260506140359 12 30 19.3 38.6 0.00 0.00 0.00 69 1015.7
20260506135858 11 20 22.5 38.6 0.00 0.00 0.00 69 1015.9
20260506135359 11 20 22.5 38.6 0.00 0.00 0.00 69 1015.8
20260506134859 11 20 22.5 38.6 0.00 0.00 0.00 69 1015.6
20260506134359 11 40 22.5 22.5 0.00 0.00 0.00 71 1015.5
20260506133859 11 40 22.5 22.5 0.00 0.00 0.00 69 1015.3
20260506133359 11 40 22.5 22.5 0.00 0.00 0.00 69 1015.2
20260506132358 11 20 19.3 19.3 0.00 0.00 0.00 71 1014.9
20260506131359 11 20 19.3 19.3 0.00 0.00 0.00 71 1014.6
20260506130859 11 20 19.3 19.3 0.00 0.00 0.00 71 1014.4
20260506130359 11 20 19.3 38.6 0.00 0.00 0.00 72 1014.5
20260506125359 11 30 20.9 38.6 0.00 0.00 0.00 72 1014.6
20260506124859 11 30 20.9 38.6 0.00 0.00 0.00 72 1014.7
20260506124359 11 20 20.9 37.0 0.00 0.00 0.00 72 1014.7
20260506123859 11 20 20.9 37.0 0.00 0.00 0.00 72 1014.5
20260506122859 11 20 20.9 37.0 0.00 0.00 0.00 73 1014.2
20260506122359 11 20 20.9 37.0 0.00 0.00 0.00 73 1014.1
20260506121859 11 20 20.9 37.0 0.00 0.00 0.00 73 1014.1
20260506121359 11 20 20.9 37.0 0.00 0.00 0.00 74 1014.0
20260506120359 10 20 20.9 37.0 0.00 0.00 0.00 74 1014.1
20260506115859 10 20 19.3 33.8 0.00 0.00 0.00 74 1014.2
20260506114900 10 20 19.3 33.8 0.00 0.00 0.00 74 1014.1
20260506113859 10 350 16.1 32.2 0.00 0.00 0.00 75 1013.8
20260506113400 10 350 16.1 37.0 0.00 0.00 0.00 74 1014.2
20260506112859 10 10 19.3 37.0 0.00 0.00 0.00 75 1014.3
20260506112359 10 10 19.3 37.0 0.00 0.00 0.00 75 1014.1
20260506111859 10 10 19.3 37.0 0.00 0.00 0.00 75 1013.9
20260506111359 10 10 19.3 37.0 0.00 0.00 0.00 75 1013.8
20260506110859 10 10 19.3 37.0 0.00 0.00 0.00 75 1013.2
20260506110359 10 10 19.3 37.0 0.00 0.00 0.00 75 1013.7
20260506105859 10 10 19.3 33.8 0.00 0.00 0.00 75 1013.3
20260506105400 10 10 19.3 33.8 0.00 0.00 0.00 76 1013.8
20260506104859 10 10 19.3 33.8 0.00 0.00 0.00 76 1013.6
20260506104359 10 10 12.9 12.9 0.00 0.00 0.00 76 1013.2
20260506103359 10 10 12.9 14.5 0.00 0.00 0.00 78 1013.4
20260506102859 10 0 14.5 14.5 0.00 0.00 0.00 78 1013.2
20260506102400 10 0 14.5 14.5 0.00 0.00 0.00 78 1013.2
20260506101859 10 0 14.5 14.5 0.00 0.00 0.00 79 1013.0
20260506100859 10 0 14.5 14.5 0.00 0.00 0.00 79 1013.0
20260506100359 10 0 14.5 16.1 0.00 0.00 0.00 79 1012.9
20260506095859 10 10 16.1 16.1 0.00 0.00 0.00 79 1012.9
20260506095359 10 10 16.1 16.1 0.00 0.00 0.00 79 1013.0
20260506094859 10 10 16.1 32.2 0.00 0.00 0.00 79 1013.0
20260506094359 10 10 19.3 32.2 0.00 0.00 0.00 79 1012.9
20260506093900 10 10 19.3 32.2 0.00 0.00 0.00 79 1012.8
20260506093359 10 10 19.3 32.2 0.00 0.00 0.00 79 1012.6
20260506092900 10 10 16.1 16.1 0.00 0.00 0.00 79 1012.6
20260506092359 10 10 16.1 16.1 0.00 0.00 0.00 79 1012.5
20260506091859 10 10 16.1 16.1 0.00 0.00 0.00 79 1012.4
20260506091359 10 10 16.1 16.1 0.00 0.00 0.00 79 1012.3
20260506090859 10 10 16.1 16.1 0.00 0.00 0.00 79 1012.3
20260506090359 10 10 16.1 16.1 0.00 0.00 0.00 79 1012.3
20260506085859 10 30 16.1 16.1 0.00 0.00 0.00 79 1012.1
20260506085400 10 30 16.1 16.1 0.00 0.00 0.00 79 1012.2
20260506084859 10 30 16.1 38.6 0.00 0.00 0.00 79 1012.1
20260506083859 10 30 22.5 38.6 0.00 0.00 0.00 79 1011.6
20260506083359 10 30 22.5 38.6 0.00 0.00 0.00 78 1011.8
20260506082359 10 20 19.3 32.2 0.00 0.00 0.00 78 1011.9
20260506081859 10 20 19.3 32.2 0.00 0.00 0.00 78 1011.8
20260506081359 10 20 19.3 32.2 0.00 0.00 0.00 78 1011.5
20260506080359 11 20 19.3 32.2 0.00 0.00 0.00 76 1011.6
20260506073400 11 20 12.9 14.5 0.00 0.00 0.00 75 1011.6
20260506072859 11 10 14.5 14.5 0.00 0.00 0.00 75 1011.7
20260506072400 11 10 14.5 14.5 0.00 0.00 0.00 75 1011.4
20260506071859 11 10 14.5 14.5 0.00 0.00 0.00 75 1011.7
20260506071359 11 10 14.5 14.5 0.00 0.00 0.00 75 1011.5
20260506070900 11 10 14.5 14.5 0.00 0.00 0.00 75 1011.1
20260506070359 11 10 14.5 16.1 0.00 0.00 0.00 75 1010.9
20260506062359 11 30 19.3 33.8 0.00 0.00 0.00 73 1010.9
20260506061859 11 30 19.3 33.8 0.00 0.00 0.00 73 1010.9
20260506061359 11 30 19.3 33.8 0.00 0.00 0.00 73 1011.1
20260506060900 11 30 19.3 33.8 0.00 0.00 0.00 72 1011.2
20260506060400 11 30 19.3 33.8 0.00 0.00 0.00 73 1011.1
20260506051359 12 10 14.5 14.5 0.00 0.00 0.00 73 1011.2
20260506050859 12 10 14.5 14.5 0.00 0.00 0.00 72 1011.2
20260506050400 12 10 14.5 37.0 0.00 0.00 0.00 73 1011.2
20260506044900 12 10 16.1 37.0 0.00 0.00 0.00 73 1011.2
20260506044359 12 10 16.1 16.1 0.00 0.00 0.00 73 1011.2
20260506043859 12 10 16.1 16.1 0.00 0.00 0.00 73 1011.1
20260506043400 12 10 16.1 16.1 0.00 0.00 0.00 73 1011.0
20260506042900 12 10 16.1 16.1 0.00 0.00 0.00 73 1011.0
20260506042359 12 10 16.1 16.1 0.00 0.00 0.00 73 1011.0
20260506041900 12 10 16.1 16.1 0.00 0.00 0.00 73 1011.2
20260506040859 12 10 16.1 16.1 0.00 0.00 0.00 74 1011.2
20260506040359 12 10 16.1 16.1 0.00 0.00 0.00 74 1011.1
20260506035900 12 20 16.1 16.1 0.00 0.00 0.00 74 1011.2
20260506035359 12 20 16.1 16.1 0.00 0.00 0.00 74 1011.2
20260506034900 12 20 16.1 38.6 0.00 0.00 0.00 74 1011.2
20260506034400 12 20 22.5 38.6 0.00 0.00 0.00 74 1011.1
20260506033859 12 20 22.5 38.6 0.00 0.00 0.00 75 1011.0
20260506033359 12 20 22.5 38.6 0.00 0.00 0.00 75 1010.9
20260506032900 12 10 22.5 33.8 0.00 0.00 0.00 75 1010.9
20260506032400 12 10 22.5 33.8 0.00 0.00 0.00 75 1010.6
20260506031900 12 10 22.5 33.8 0.00 0.00 0.00 75 1010.3
20260506031359 12 10 22.5 33.8 0.00 0.00 0.00 75 1010.1
20260506030900 12 10 22.5 33.8 0.00 0.00 0.00 75 1010.1
20260506030400 12 10 22.5 33.8 0.00 0.00 0.00 74 1009.8
20260506025900 12 0 20.9 20.9 0.00 0.00 0.00 74 1009.6
20260506025400 12 0 20.9 20.9 0.00 0.00 0.00 74 1009.5
20260506024900 12 0 20.9 20.9 0.00 0.00 0.00 74 1009.3
20260506024400 12 10 16.1 16.1 0.00 0.00 0.00 74 1009.3
20260506023900 13 10 16.1 16.1 0.00 0.00 0.00 75 1009.3
20260506022359 13 0 19.3 33.8 0.00 0.00 0.00 79 1009.1
20260506021859 13 0 19.3 33.8 0.00 0.00 0.00 79 1008.8
20260506021400 13 0 19.3 33.8 0.00 0.00 0.00 79 1008.7
20260506020900 13 0 19.3 33.8 0.00 0.00 0.00 79 1008.6
20260506015900 13 0 16.1 29.0 0.00 0.00 0.00 79 1008.3
20260506014859 13 0 16.1 29.0 0.00 0.00 0.00 79 1008.0
20260506014400 13 10 16.1 16.1 0.00 0.00 0.00 79 1008.0
20260506013900 13 10 16.1 16.1 0.00 0.00 0.00 79 1008.0
20260506013400 13 10 16.1 29.0 0.00 0.00 0.00 79 1008.1
20260506012900 13 10 16.1 29.0 0.00 0.00 0.00 79 1007.8
20260506012400 14 10 16.1 29.0 0.00 0.00 0.00 78 1007.7
20260506011900 14 10 16.1 29.0 0.00 0.00 0.00 78 1007.7
20260506011400 14 10 16.1 29.0 0.00 0.00 0.00 78 1007.7
20260506010900 14 10 16.1 29.0 0.00 0.00 0.00 78 1007.9
20260506010359 14 10 16.1 33.8 0.00 0.00 0.00 78 1007.6
20260506005859 14 0 14.5 33.8 0.00 0.00 0.00 78 1007.4
20260506005400 14 0 14.5 33.8 0.00 0.00 0.00 78 1007.5
20260506004900 15 0 14.5 33.8 0.00 0.00 0.00 76 1007.5
20260506004400 15 0 20.9 20.9 0.00 0.00 0.00 76 1007.5
20260506003400 15 0 20.9 32.2 0.00 0.00 0.00 76 1007.3
20260506002859 15 10 14.5 32.2 0.00 0.00 0.00 76 1007.0
20260506002400 15 10 14.5 32.2 0.00 0.00 0.00 75 1007.1
20260506001359 16 10 14.5 32.2 0.00 0.00 0.00 75 1006.9
20260506000900 16 10 14.5 32.2 0.00 0.00 0.00 75 1006.9
20260506000401 18 10 14.5 37.0 0.00 0.00 0.00 69 1006.9
20260505235400 18 350 20.9 37.0 0.00 0.00 0.00 69 1006.8
20260505234859 18 350 20.9 37.0 0.00 0.00 0.00 69 1006.7
20260505234400 18 330 16.1 32.2 0.00 0.00 0.00 69 1006.8
20260505233400 18 330 16.1 33.8 0.00 0.00 0.00 69 1006.8
20260505232900 18 330 20.9 33.8 0.00 0.00 0.00 69 1006.7
20260505232359 18 330 20.9 33.8 0.00 0.00 0.00 69 1006.7
20260505231400 18 330 20.9 33.8 0.00 0.00 0.00 68 1006.7
20260505230900 19 330 20.9 33.8 0.00 0.00 0.00 68 1006.5
20260505230400 19 330 20.9 33.8 0.00 0.00 0.00 68 1006.5
20260505225400 20 320 16.1 32.2 0.00 0.00 0.00 67 1006.3
20260505224901 20 320 16.1 32.2 0.00 0.00 0.00 67 1006.2
20260505224400 20 320 12.9 32.2 0.00 0.00 0.00 67 1006.0
20260505223900 20 320 12.9 32.2 0.00 0.00 0.00 68 1006.0
20260505223400 20 320 12.9 32.2 0.00 0.00 0.00 68 1005.9
20260505222900 20 340 16.1 29.0 0.00 0.00 0.00 68 1005.7
20260505222400 20 340 16.1 29.0 0.00 0.00 0.00 68 1005.5
20260505221900 20 340 16.1 29.0 0.00 0.00 0.00 68 1005.3
20260505221400 20 340 16.1 29.0 0.00 0.00 0.00 68 1005.4
20260505220900 21 340 16.1 29.0 0.00 0.00 0.00 67 1005.5
20260505220400 21 340 16.1 29.0 0.00 0.00 0.00 67 1005.4
20260505215400 21 310 12.9 12.9 0.00 0.00 0.00 66 1005.1
20260505214900 21 310 12.9 12.9 0.00 0.00 0.00 66 1005.0
20260505214400 22 320 12.9 12.9 0.00 0.00 0.00 65 1005.0
20260505213400 22 320 12.9 16.1 0.00 0.00 0.00 65 1004.9
20260505212900 22 320 16.1 16.1 0.00 0.00 0.00 65 1004.8
20260505211400 23 320 16.1 16.1 0.00 0.00 0.00 64 1004.6
20260505210900 23 320 16.1 16.1 0.00 0.00 0.00 64 1004.5
20260505210400 23 320 16.1 32.2 0.00 0.00 0.00 65 1004.6
20260505205900 23 300 14.5 32.2 0.00 0.00 0.00 64 1004.6